K7JKM Weather Reports


time (UTC)temp
C
wind
direction
speed
KPH
gust
KPH
rain 1hr
cm
rain 24hr
cm
rain mn
cm
humidity
%
barometer
mb
20260507224516 22 110 0.0 1.6 0.00 0.00 0.00 35 1018.0
20260507223014 22 15 0.0 1.6 0.00 0.00 0.00 33 1018.1
20260507221513 21 321 0.0 1.6 0.00 0.00 0.00 32 1018.2
20260507220009 21 297 0.0 3.2 0.00 0.00 0.00 29 1018.5
20260507214520 21 359 0.0 3.2 0.00 0.00 0.00 32 1018.6
20260507213006 21 221 0.0 3.2 0.00 0.00 0.00 35 1018.8
20260507211519 20 29 0.0 1.6 0.00 0.00 0.00 35 1019.1
20260507210017 21 55 0.0 1.6 0.00 0.00 0.00 36 1019.2
20260507204520 19 94 0.0 3.2 0.00 0.00 0.00 40 1019.4
20260507203020 19 207 0.0 3.2 0.00 0.00 0.00 41 1019.6
20260507201517 20 63 0.0 1.6 0.00 0.00 0.00 41 1019.7
20260507200014 18 302 0.0 3.2 0.00 0.00 0.00 45 1019.8
20260507194511 19 56 0.0 3.2 0.00 0.00 0.00 44 1019.9
20260507193022 18 49 0.0 1.6 0.00 0.00 0.00 45 1020.1
20260507191524 18 75 0.0 6.4 0.00 0.00 0.00 46 1020.3
20260507190022 18 53 0.0 1.6 0.00 0.00 0.00 47 1020.3
20260507184523 17 60 0.0 1.6 0.00 0.00 0.00 50 1020.5
20260507183021 16 296 0.0 1.6 0.00 0.00 0.00 49 1020.5
20260507181519 16 298 0.0 1.6 0.00 0.00 0.00 50 1020.7
20260507180013 16 63 0.0 3.2 0.00 0.00 0.00 51 1020.8
20260507174515 16 58 0.0 4.8 0.00 0.00 0.00 52 1021.0
20260507173022 15 91 0.0 1.6 0.00 0.00 0.00 54 1020.9
20260507171508 15 304 0.0 4.8 0.00 0.00 0.00 54 1021.0
20260507170003 15 58 0.0 0.0 0.00 0.00 0.00 54 1020.9
20260507164504 15 159 0.0 3.2 0.00 0.00 0.00 56 1020.9
20260507163022 13 72 0.0 0.0 0.00 0.00 0.00 56 1020.9
20260507161523 13 90 0.0 0.0 0.00 0.00 0.00 57 1021.0
20260507160018 13 122 0.0 0.0 0.00 0.00 0.00 57 1020.9
20260507154516 13 65 0.0 0.0 0.00 0.00 0.00 58 1021.1
20260507153014 12 64 0.0 0.0 0.00 0.00 0.00 58 1021.2
20260507151511 12 280 0.0 1.6 0.00 0.00 0.00 59 1021.3
20260507150008 12 316 0.0 1.6 0.00 0.00 0.00 60 1021.3
20260507144536 12 297 0.0 1.6 0.00 0.00 0.00 60 1021.3
20260507143025 12 293 0.0 0.0 0.00 0.00 0.00 60 1021.3
20260507141523 11 326 0.0 0.0 0.00 0.00 0.00 61 1021.1
20260507140024 11 304 0.0 0.0 0.00 0.00 0.00 61 1020.9
20260507134517 11 301 0.0 0.0 0.00 0.00 0.00 61 1020.8
20260507133013 11 301 0.0 0.0 0.00 0.00 0.00 61 1020.7
20260507131512 11 301 0.0 0.0 0.00 0.00 0.00 61 1020.8
20260507130026 11 39 0.0 0.0 0.00 0.00 0.00 62 1020.9
20260507124527 11 39 0.0 0.0 0.00 0.00 0.00 62 1020.9
20260507123026 11 34 0.0 0.0 0.00 0.00 0.00 61 1020.9
20260507121524 11 34 0.0 0.0 0.00 0.00 0.00 61 1021.0
20260507120020 11 72 0.0 0.0 0.00 0.00 0.00 61 1021.1
20260507114518 12 300 0.0 0.0 0.00 0.00 0.00 62 1021.2
20260507113014 12 300 0.0 0.0 0.00 0.00 0.00 62 1021.3
20260507111517 12 326 0.0 0.0 0.00 0.00 0.00 62 1021.3
20260507110008 12 297 0.0 0.0 0.00 0.00 0.00 64 1021.3
20260507104509 11 297 0.0 0.0 0.00 0.00 0.00 66 1021.4
20260507103004 12 297 0.0 0.0 0.00 0.00 0.00 65 1021.5
20260507101522 12 295 0.0 0.0 0.00 0.00 0.00 65 1021.5
20260507100020 12 302 0.0 0.0 0.00 0.00 0.00 65 1021.6
20260507094524 12 303 0.0 1.6 0.00 0.00 0.00 65 1021.7
20260507093021 12 265 0.0 1.6 0.00 0.00 0.00 65 1021.8
20260507091514 12 238 0.0 0.0 0.00 0.00 0.00 65 1021.9
20260507090011 12 261 0.0 1.6 0.00 0.00 0.00 65 1022.0
20260507084507 12 298 0.0 1.6 0.00 0.00 0.00 64 1022.0
20260507083026 12 243 0.0 0.0 0.00 0.00 0.00 64 1021.9
20260507081526 12 302 0.0 0.0 0.00 0.00 0.00 64 1021.9
20260507080021 12 296 0.0 1.6 0.00 0.00 0.00 64 1022.0
20260507074522 12 221 0.0 0.0 0.00 0.00 0.00 65 1021.9
20260507073016 12 221 0.0 0.0 0.00 0.00 0.00 65 1021.9
20260507071512 12 219 0.0 0.0 0.00 0.00 0.00 65 1021.8
20260507070018 12 294 0.0 0.0 0.00 0.00 0.00 65 1021.7
20260507064531 11 294 0.0 0.0 0.00 0.00 0.00 65 1021.7
20260507063026 11 295 0.0 0.0 0.00 0.00 0.00 65 1021.8
20260507061524 11 165 0.0 1.6 0.00 0.00 0.00 65 1021.8
20260507060033 11 281 0.0 1.6 0.00 0.00 0.00 65 1021.8
20260507054518 11 278 0.0 1.6 0.00 0.00 0.00 65 1021.7
20260507053017 11 289 0.0 3.2 0.00 0.00 0.00 64 1021.7
20260507051516 11 303 0.0 3.2 0.00 0.00 0.00 64 1021.7
20260507050028 11 285 0.0 4.8 0.00 0.00 0.00 64 1021.8
20260507044545 11 288 0.0 4.8 0.00 0.00 0.00 64 1021.6
20260507043026 12 189 0.0 8.0 0.00 0.00 0.00 64 1021.5
20260507041526 12 329 1.6 9.7 0.00 0.00 0.00 64 1021.5
20260507040031 12 41 0.0 9.7 0.00 0.00 0.00 63 1021.3
20260507034523 12 326 0.0 12.9 0.00 0.00 0.00 63 1021.0
20260507033004 12 299 1.6 9.7 0.00 0.00 0.00 62 1020.9
20260507031503 13 281 0.0 11.3 0.00 0.00 0.00 61 1020.7
20260507030014 13 305 1.6 11.3 0.00 0.00 0.00 60 1020.7
20260507024512 14 285 1.6 9.7 0.00 0.00 0.00 59 1020.7
20260507023009 15 155 1.6 9.7 0.00 0.00 0.00 57 1020.5
20260507021503 15 314 1.6 11.3 0.00 0.00 0.00 56 1020.6
20260507020005 16 271 3.2 9.7 0.00 0.00 0.00 55 1020.6
20260507014503 16 86 1.6 14.5 0.00 0.00 0.00 54 1020.9
20260507013019 17 312 3.2 12.9 0.00 0.00 0.00 54 1020.7
20260507011515 17 56 1.6 9.7 0.00 0.00 0.00 52 1020.7
20260507010013 18 149 1.6 16.1 0.00 0.00 0.00 51 1020.8
20260507004511 18 300 1.6 14.5 0.00 0.00 0.00 49 1020.8
20260507003005 19 327 1.6 11.3 0.00 0.00 0.00 48 1020.7
20260507001506 20 338 0.0 11.3 0.00 0.00 0.00 48 1020.6
20260507000011 19 325 0.0 14.5 0.00 0.00 0.00 49 1020.5
20260506234524 20 304 1.6 14.5 0.00 0.00 0.00 49 1020.6
20260506233022 20 60 0.0 14.5 0.00 0.00 0.00 47 1020.5
20260506231517 21 305 1.6 8.0 0.00 0.00 0.00 46 1020.5
20260506230016 21 305 0.0 9.7 0.00 0.00 0.00 46 1020.4